Waarnemingen

Advertentie
Mijn weer
Fair Isle, Groot Brittannië (3008): temperatuur & dauwpunt: 14.11.2017 00:00:00 - 20.11.2017 00:00:00 (GMT)Fair Isle, Groot Brittannië (3008): windsnelheid & windstoten: 14.11.2017 00:00:00 - 20.11.2017 00:00:00 (GMT)Fair Isle, Groot Brittannië (3008): windrichting: 14.11.2017 00:00:00 - 20.11.2017 00:00:00 (GMT)Fair Isle, Groot Brittannië (3008): luchtdruk: 14.11.2017 00:00:00 - 20.11.2017 00:00:00 (GMT)Fair Isle, Groot Brittannië (3008): zicht: 14.11.2017 00:00:00 - 20.11.2017 00:00:00 (GMT)Fair Isle, Groot Brittannië (3008): neerslag: 14.11.2017 00:00:00 - 20.11.2017 00:00:00 (GMT)
Datum & Tijd tt [°C] td [°C] ff [km/u] ff [kn] fx [km/u] fx [kn] dd ppp [hPa] vv [km] rr [mm]
20.11.2017 00:00:00 - - - - - - - - - -
19.11.2017 23:00:00 3,2 -0,1 11 6 - - NNW 1015,7 26 0,0
19.11.2017 22:00:00 4,1 0,6 18 10 - - N 1016,1 30 0,2
19.11.2017 21:00:00 3,9 0,5 21 11 - - NW 1016,4 35 0,0
19.11.2017 20:00:00 4,5 -1,0 21 11 - - NNW 1016,5 45 0,0
19.11.2017 19:00:00 4,2 0,7 28 15 46 25 WNW 1016,6 7 0,2
19.11.2017 18:00:00 5,3 -2,4 24 13 - - NNW 1016,5 40 0,0
19.11.2017 17:00:00 5,4 -0,2 28 15 46 25 WNW 1016,8 29 0,0
19.11.2017 16:00:00 5,2 1,2 18 10 - - NNW 1017,0 30 0,0
19.11.2017 15:00:00 4,5 0,9 16 9 - - NNW 1017,2 26 0,0
19.11.2017 14:00:00 5,5 -0,2 24 13 - - NNW 1017,1 28 0,0
19.11.2017 13:00:00 4,7 1,6 18 10 - - NNW 1017,4 35 0,4
19.11.2017 12:00:00 5,1 2,1 22 12 50 27 NNW 1017,5 17 0,0
19.11.2017 11:00:00 3,8 1,3 26 14 48 26 NNW 1017,6 16 0,4
19.11.2017 10:00:00 4,9 1,9 16 9 57 31 NNW 1017,4 20 0,2
19.11.2017 09:00:00 6,2 0,0 21 11 - - NW 1016,8 19 0,0
19.11.2017 08:00:00 5,6 1,4 28 15 50 27 WNW 1016,5 17 0,0
19.11.2017 07:00:00 6,1 -0,2 31 17 54 29 NNW 1016,1 30 0,0
19.11.2017 06:00:00 6,6 0,7 34 18 57 31 NNW 1015,9 21 0,0
19.11.2017 05:00:00 6,4 1,3 37 20 63 34 NNW 1015,7 17 0,0
19.11.2017 04:00:00 6,3 0,5 34 18 61 33 NW 1015,2 18 0,0
19.11.2017 03:00:00 6,5 -0,1 39 21 68 37 NNW 1014,8 19 0,0
19.11.2017 02:00:00 6,5 0,3 42 23 74 40 NNW 1014,2 21 0,2
19.11.2017 01:00:00 6,3 2,0 37 20 72 39 NNW 1014,0 14 0,0
19.11.2017 00:00:00 6,8 2,1 41 22 74 40 NW 1013,4 13 0,0
18.11.2017 23:00:00 6,4 2,1 50 27 78 42 NNW 1012,9 11 0,0
18.11.2017 22:00:00 6,5 2,2 52 28 80 43 NNW 1012,0 15 0,0
18.11.2017 21:00:00 6,0 3,8 48 26 87 47 NNW 1011,6 15 0,4
18.11.2017 20:00:00 6,3 3,1 39 21 81 44 WNW 1011,0 12 0,0
18.11.2017 19:00:00 6,4 2,4 42 23 80 43 NW 1010,3 13 0,0
18.11.2017 18:00:00 6,4 2,8 41 22 80 43 NW 1009,8 13 0,0
18.11.2017 17:00:00 6,4 2,3 41 22 81 44 NW 1009,2 12 0,0
18.11.2017 16:00:00 6,4 2,0 44 24 91 49 NW 1009,0 15 0,0
18.11.2017 15:00:00 6,1 2,8 48 26 89 48 NW 1008,8 17 0,0
18.11.2017 14:00:00 7,3 2,8 46 25 89 48 WNW 1008,0 12 0,0
18.11.2017 13:00:00 6,9 2,6 48 26 83 45 WNW 1007,8 13 0,0
18.11.2017 12:00:00 7,1 1,6 46 25 76 41 WNW 1007,3 13 0,2
18.11.2017 11:00:00 5,6 1,9 42 23 70 38 WNW 1007,2 10 0,6
18.11.2017 10:00:00 5,6 4,1 52 28 87 47 WNW 1006,7 5 1,0
18.11.2017 09:00:00 6,9 3,0 50 27 81 44 WNW 1005,8 11 0,0
18.11.2017 08:00:00 6,1 3,5 50 27 87 47 W 1005,9 12 0,0
18.11.2017 07:00:00 6,7 2,0 54 29 87 47 WNW 1005,3 13 0,0
18.11.2017 06:00:00 6,6 0,5 54 29 94 51 WNW 1004,6 13 0,0
18.11.2017 05:00:00 6,0 0,8 55 30 94 51 WNW 1004,5 12 0,0
18.11.2017 04:00:00 5,0 1,3 54 29 89 48 WNW 1004,4 10 0,4
18.11.2017 03:00:00 5,5 2,0 39 21 98 53 WNW 1004,3 12 0,0
18.11.2017 02:00:00 6,1 -1,5 50 27 93 50 WNW 1004,1 18 0,0
18.11.2017 01:00:00 4,8 -0,8 63 34 91 49 WNW 1004,3 15 0,4
18.11.2017 00:00:00 5,8 0,1 44 24 85 46 W 1004,2 14 -
17.11.2017 23:00:00 5,6 -1,2 46 25 74 40 WNW 1004,5 19 0,0
17.11.2017 22:00:00 6,0 0,0 55 30 85 46 W 1004,3 13 0,0
17.11.2017 21:00:00 4,3 1,1 55 30 96 52 W 1005,4 12 0,0
17.11.2017 20:00:00 6,4 2,2 48 26 78 42 W 1005,1 12 0,0
17.11.2017 19:00:00 6,2 1,9 42 23 72 39 W 1005,7 14 0,2
17.11.2017 18:00:00 3,8 0,5 55 30 85 46 WNW 1006,9 7 0,0
17.11.2017 17:00:00 7,1 1,3 42 23 74 40 W 1006,7 14 0,0
17.11.2017 16:00:00 5,4 2,7 41 22 80 43 W 1007,5 4,9 0,6
17.11.2017 15:00:00 6,7 4,1 44 24 70 38 W 1007,7 10 1,0
17.11.2017 14:00:00 5,5 4,0 41 22 85 46 W 1008,5 14 1,4
17.11.2017 13:00:00 7,5 4,7 42 23 76 41 W 1008,7 11 0,2
17.11.2017 12:00:00 7,4 3,2 44 24 68 37 W 1009,2 10 0,0
17.11.2017 11:00:00 7,2 4,9 41 22 72 39 W 1009,8 11 0,6
17.11.2017 10:00:00 6,7 4,1 42 23 81 44 W 1009,6 13 0,4
17.11.2017 09:00:00 8,0 2,8 50 27 87 47 W 1009,7 10 0,6
17.11.2017 08:00:00 7,2 4,6 48 26 76 41 W 1010,3 11 0,2
17.11.2017 07:00:00 6,5 4,2 41 22 78 42 W 1010,2 11 0,8
17.11.2017 06:00:00 8,0 5,3 54 29 85 46 W 1009,9 8 0,0
17.11.2017 05:00:00 6,8 4,3 57 31 93 50 W 1010,3 12 0,8
17.11.2017 04:00:00 7,4 5,7 59 32 104 56 W 1010,2 8 0,4
17.11.2017 03:00:00 6,8 4,7 59 32 89 48 W 1010,9 8 0,6
17.11.2017 02:00:00 6,9 5,0 55 30 93 50 WZW 1011,1 11 -
17.11.2017 01:00:00 7,3 3,8 63 34 87 47 W 1011,7 10 0,2
17.11.2017 00:00:00 7,4 4,6 48 26 85 46 WZW 1011,9 7 -
16.11.2017 23:00:00 8,0 2,4 52 28 76 41 W 1012,1 10 0,0
16.11.2017 22:00:00 7,7 2,0 48 26 78 42 W 1012,3 11 0,0
16.11.2017 21:00:00 7,4 1,8 54 29 83 45 W 1012,3 10 0,0
16.11.2017 20:00:00 5,9 3,5 44 24 83 45 W 1011,5 11 0,6
16.11.2017 19:00:00 5,8 2,0 41 22 93 50 W 1011,1 11 0,0
16.11.2017 18:00:00 6,8 -1,2 50 27 76 41 W 1010,0 14 0,0
16.11.2017 17:00:00 6,4 -0,8 46 25 76 41 W 1009,4 14 0,0
16.11.2017 16:00:00 5,7 2,3 59 32 96 52 W 1008,5 12 0,8
16.11.2017 15:00:00 6,5 0,7 50 27 85 46 W 1007,2 10 0,0
16.11.2017 14:00:00 6,0 1,7 61 33 87 47 W 1006,5 7 0,0
16.11.2017 13:00:00 6,5 2,4 55 30 83 45 W 1005,1 9 0,4
16.11.2017 12:00:00 6,1 2,1 42 23 89 48 W 1004,9 10 0,0
16.11.2017 11:00:00 5,7 2,0 59 32 85 46 W 1004,3 15 0,2
16.11.2017 10:00:00 7,4 2,9 52 28 76 41 W 1003,1 - 0,0
16.11.2017 09:00:00 6,3 2,8 52 28 96 52 W 1002,4 15 0,0
16.11.2017 08:00:00 7,0 3,3 52 28 81 44 WZW 1001,7 - 0,2
16.11.2017 07:00:00 8,8 4,6 50 27 70 38 WZW 1001,0 - 0,2
16.11.2017 06:00:00 8,7 7,2 50 27 67 36 ZW 1000,7 9 0,4
16.11.2017 05:00:00 9,0 7,4 42 23 96 52 ZZW 1000,8 13 0,4
16.11.2017 04:00:00 9,5 7,8 63 34 89 48 ZZW 1001,4 8 0,2
16.11.2017 03:00:00 9,5 7,6 59 32 85 46 Z 1001,9 12 0,2
16.11.2017 02:00:00 9,0 8,0 52 28 74 40 Z 1003,5 8 -
16.11.2017 01:00:00 8,3 7,4 54 29 74 40 Z 1005,2 5 1,6
16.11.2017 00:00:00 8,5 7,4 52 28 67 36 Z 1007,0 7 -
15.11.2017 23:00:00 8,8 6,5 52 28 68 37 Z 1008,5 15 0,0
15.11.2017 22:00:00 8,9 6,0 48 26 67 36 Z 1010,1 19 0,0
15.11.2017 21:00:00 8,7 5,4 42 23 57 31 Z 1012,1 21 0,0
15.11.2017 20:00:00 8,1 4,1 39 21 59 32 Z 1013,7 40 0,0
15.11.2017 19:00:00 7,6 2,8 37 20 48 26 Z 1015,0 30 0,0
15.11.2017 18:00:00 7,3 3,2 29 16 - - Z 1016,2 30 0,0
15.11.2017 17:00:00 7,1 2,7 26 14 - - ZZW 1017,3 27 0,0
15.11.2017 16:00:00 7,2 3,1 24 13 - - ZZW 1018,2 29 0,0
15.11.2017 15:00:00 7,2 3,4 21 11 - - ZZW 1018,8 28 0,0
15.11.2017 14:00:00 7,5 3,2 18 10 - - ZW 1019,1 16 0,0
15.11.2017 13:00:00 7,4 2,2 16 9 - - WZW 1019,4 27 0,0
15.11.2017 12:00:00 8,2 2,3 15 8 - - W 1019,6 30 0,0
15.11.2017 11:00:00 7,9 1,5 16 9 - - W 1019,5 17 0,0
15.11.2017 10:00:00 7,9 1,3 22 12 - - W 1019,3 14 0,0
15.11.2017 09:00:00 7,3 0,5 29 16 57 31 W 1018,8 16 0,0
15.11.2017 08:00:00 7,9 1,6 29 16 52 28 W 1018,3 18 0,0
15.11.2017 07:00:00 7,5 2,9 24 13 52 28 W 1017,6 14 0,0
15.11.2017 06:00:00 7,7 0,7 39 21 61 33 W 1016,7 18 0,0
15.11.2017 05:00:00 8,0 0,4 35 19 59 32 W 1016,1 21 0,0
15.11.2017 04:00:00 7,8 0,5 41 22 63 34 W 1015,7 15 0,0
15.11.2017 03:00:00 7,3 3,3 39 21 61 33 W 1015,4 16 0,0
15.11.2017 02:00:00 7,7 2,1 34 18 68 37 W 1014,5 18 0,2
15.11.2017 01:00:00 7,9 2,5 31 17 68 37 W 1014,0 15 0,0
15.11.2017 00:00:00 7,8 1,7 44 24 65 35 W 1013,3 21 0,0
14.11.2017 23:00:00 8,3 1,2 41 22 68 37 W 1012,4 20 0,0
14.11.2017 22:00:00 8,6 5,4 35 19 55 30 W 1011,8 14 0,2
14.11.2017 21:00:00 7,5 5,4 41 22 67 36 W 1011,5 17 0,8
14.11.2017 20:00:00 7,8 6,0 35 19 61 33 WZW 1011,3 12 0,4
14.11.2017 19:00:00 8,4 6,5 46 25 65 35 ZW 1011,2 13 1,6
14.11.2017 18:00:00 8,7 5,8 44 24 57 31 WZW 1011,1 14 0,0
14.11.2017 17:00:00 8,5 5,9 44 24 57 31 ZW 1011,0 13 0,0
14.11.2017 16:00:00 8,4 5,2 41 22 55 30 ZW 1011,4 24 0,0
14.11.2017 15:00:00 8,4 5,3 35 19 59 32 WZW 1011,7 21 0,0
14.11.2017 14:00:00 8,6 4,5 29 16 48 26 WZW 1011,7 23 0,0
14.11.2017 13:00:00 8,5 4,5 31 17 48 26 WZW 1011,9 18 0,2
14.11.2017 12:00:00 7,3 5,2 35 19 48 26 W 1012,3 18 0,4
14.11.2017 11:00:00 8,8 4,7 28 15 - - W 1012,1 18 0,0
14.11.2017 10:00:00 8,5 4,1 26 14 48 26 W 1011,6 17 0,0
14.11.2017 09:00:00 8,6 3,4 35 19 48 26 W 1011,1 20 0,0
14.11.2017 08:00:00 8,4 4,3 29 16 54 29 W 1010,8 17 0,0
14.11.2017 07:00:00 8,6 4,1 31 17 57 31 WNW 1010,0 - 0,0
14.11.2017 06:00:00 8,5 4,4 37 20 59 32 W 1009,4 30 0,0
14.11.2017 05:00:00 7,4 4,7 29 16 59 32 WNW 1009,0 - 0,2
14.11.2017 04:00:00 8,1 5,1 28 15 55 30 W 1008,0 - 0,0
14.11.2017 03:00:00 8,6 4,9 31 17 55 30 WNW 1007,5 - 0,0
14.11.2017 02:00:00 8,8 4,7 31 17 54 29 WNW 1006,9 - 0,0
14.11.2017 01:00:00 8,8 5,3 34 18 57 31 WNW 1006,5 - 0,0
14.11.2017 00:00:00 8,1 5,8 41 22 65 35 WNW 1006,0 - 0,0

tt = temperatuur
td = dauwpunt
ff = windsnelheid
fx = windstoten
dd = windrichting
ppp = luchtdruk
vv = zicht
rr = neerslag

Weerstations in de omgeving